SCP
0 0 0 0 0 0 0 0 1 1 0 0 0 0 0 0 0 0 0 0 0 0 0 0 0 0 0 0 0 0 0 0 0 0 0 0 0 0 0 0 0 0 0
0 0 0 0 0 0 0 0 0 1 0 0 0 0 0 0 0 0 0 0 0 0 0 0 0 0 0 0 0 0 0 0 0 0 0 0 0 0 0 0 0 0 0
0 0 0 0 0 0 0 0 0 0 0 0 0 0 0 0 0 0 0 0 0 0 0 0 0 0 0 0 0 0 0 0 0 0 0 0 0 0 0 0 0 0 0
0 0 0 0 0 0 0 0 0 0 0 0 0 0 0 0 0 0 0 0 0 0 0 0 0 0 0 0 0 0 0 0 0 0 0 0 0 0 0 0 0 0 0
0 0 0 0 0 0 0 0 0 0 0 0 0 0 0 0 0 0 0 0 0 0 0 0 0 0 0 0 0 0 0 0 0 0 0 0 0 0 0 0 0 0 0
0 0 0 0 0 0 0 0 0 0 0 0 0 0 0 0 0 0 0 0 0 0 0 0 0 0 0 0 0 0 0 0 0 0 0 0 0 0 0 0 0 0 0
0 0 0 0 0 0 0 0 0 0 0 0 0 0 0 0 0 0 0 0 0 0 0 0 0 0 0 0 0 0 0 0 0 0 0 0 0 0 0 0 0 0 0
0 0 0 0 0 0 0 0 0 0 0 0 0 0 0 0 0 0 0 0 0 0 0 0 0 0 0 0 0 0 0 0 0 0 0 0 0 0 0 0 0 0 0
0 0 0 0 0 0 0 0 0 0 0 0 0 0 0 0 0 0 0 0 0 0 0 0 0 0 0 0 0 0 0 0 0 0 0 0 0 0 0 0 0 0 0
-0 0 0 0 0 0 0 0 0 0 0 0 0 0 0 0 0 0 0 0 0 0 0 0 0 0 0 0 0 0 0 0 0 0 0 0 0 0 0 0 0 0 0
-0 -0 -0 -0 0 0 0 0 0 0 0 0 0 0 0 0 0 0 0 0 0 0 0 0 0 0 0 0 0 0 0 0 0 0 0 0 0 0 0 0 0 0 0
-0 -0 -0 -0 -0 -0 -0 0 0 -0 -0 -0 0 0 0 0 0 0 0 0 0 0 0 0 0 0 0 0 0 0 0 0 0 0 0 0 0 0 0 0 0 0 0
-0 -0 -0 -0 -0 -0 -0 -0 -0 -0 0 -0 0 0 0 0 0 0 0 0 0 0 0 0 0 0 0 0 0 0 0 0 0 0 0 0 0 0 0 0 0 0 0
0 0 -0 -0 -0 -0 -0 -0 -0 -0 -0 0 0 0 0 0 0 0 0 0 0 0 0 0 0 0 0 0 0 0 0 0 0 0 0 0 0 0 0 0 0 0 0
0 0 0 0 0 -0 -0 -0 -0 -0 0 0 0 0 0 0 0 0 0 0 0 0 0 0 0 0 0 0 0 0 0 0 0 0 0 0 0 0 0 0 0 0 0
0 0 0 0 0 0 -0 -0 -0 -0 -0 0 0 0 0 0 0 0 0 0 0 0 0 0 0 0 0 0 0 0 0 0 0 0 0 0 0 0 0 0 0 0 0
0 0 0 0 0 0 0 -0 -0 -0 -0 -0 0 0 0 0 0 0 0 0 0 0 0 0 0 0 0 0 0 0 0 0 0 0 0 0 0 0 0 0 0 0 0
0 0 0 0 0 0 0 0 0 -0 -0 -0 -0 0 0 0 0 0 0 0 0 0 0 0 0 0 0 0 0 0 0 0 0 0 0 0 0 0 0 0 0 0 0
0 0 0 0 0 0 0 0 0 0 -0 0 0 0 0 0 0 0 0 0 0 0 0 0 0 0 0 0 0 0 0 0 0 0 0 0 0 0 0 0 0 0 0
0 0 0 0 0 0 0 0 0 0 0 0 0 0 0 0 0 0 0 0 0 0 0 0 0 0 0 0 0 0 0 0 0 0 0 0 0 0 0 0 0 0 0
-0 -0 -0 -0 0 0 0 0 0 0 0 0 0 0 0 0 0 0 0 0 0 0 0 0 0 0 0 0 0 0 0 0 0 0 0 0 0 0 0 0 0 0 0
-0 -0 -0 -0 -0 -0 -0 -0 -0 0 0 0 0 0 0 0 0 0 0 0 0 0 0 0 0 0 0 0 0 0 0 0 0 0 0 0 0 0 0 0 0 0 0
0 -0 -0 -0 -0 -0 -0 -0 -0 0 0 0 0 0 0 0 0 0 0 0 0 0 0 0 0 0 0 0 0 0 0 0 0 0 0 0 0 0 0 0 0 0 0
0 -0 -0 -0 -0 -0 -0 -0 0 0 0 0 0 0 0 0 0 0 0 0 0 0 0 0 0 0 0 0 0 0 0 0 0 0 0 0 0 0 0 0 0 0 0
0 -0 -0 -0 -0 -0 0 0 0 0 0 0 0 0 0 0 0 0 0 0 0 0 0 0 0 0 0 0 0 0 0 0 0 0 0 0 0 0 0 0 0 0 0
0 0 0 0 0 0 0 0 0 0 0 0 0 0 0 0 0 0 0 0 0 0 0 0 0 0 0 0 0 0 0 0 0 0 0 0 0 0 0 0 0 0 0
Wind_Speed_500mb
23 27 36 48 56 64 82 88 91 89 96 99 103 101 96 92 93 94 94 101 107 102 102 103 100 93 92 87 84 82 83 82 76 78 71 60 54 50 49 50 52 53 51
25 24 26 34 41 54 71 84 82 88 98 100 101 102 98 92 91 94 94 91 94 100 102 102 102 100 102 97 92 87 86 84 85 84 76 72 67 61 55 53 53 54 54
29 25 21 23 34 45 56 69 83 84 92 96 97 99 97 92 91 90 90 92 92 88 93 99 101 100 105 102 101 95 89 87 82 87 81 77 75 69 63 60 59 59 57
31 30 27 24 25 46 45 60 71 83 89 95 96 95 93 93 91 90 88 86 89 87 84 84 89 97 101 103 102 100 95 92 87 88 86 88 83 76 70 67 63 60 59
38 35 34 32 31 27 49 54 61 69 81 93 95 93 94 92 92 90 86 86 85 85 83 89 80 82 87 89 99 101 98 96 96 95 97 98 95 88 85 77 74 64 67
42 41 39 37 35 31 26 49 53 62 70 77 86 92 93 96 92 89 85 85 84 85 88 89 93 91 80 79 81 81 89 95 101 101 103 107 105 102 95 86 76 76 75
42 44 42 40 37 35 28 30 48 54 59 68 76 77 86 91 92 90 85 85 87 88 89 90 91 90 87 81 84 83 83 86 89 96 102 109 109 104 101 98 86 82 83
45 44 48 45 40 40 38 31 32 42 53 61 67 74 78 84 85 83 80 79 85 88 88 89 90 89 90 78 80 88 89 87 91 91 97 95 98 98 99 95 84 80 78
49 48 48 52 50 44 45 43 37 37 46 53 61 67 74 79 82 83 77 80 86 88 87 86 87 84 82 81 75 87 91 94 89 90 93 88 87 87 82 91 95 88 85
51 53 52 53 55 54 50 49 48 45 47 52 56 63 69 75 79 81 77 80 87 96 93 91 88 85 82 75 81 88 93 93 89 89 93 95 91 89 85 84 91 96 93
57 58 58 56 59 60 60 56 55 55 54 54 62 63 65 72 77 80 79 81 93 91 92 91 93 83 82 82 78 86 90 80 83 87 87 92 95 97 98 91 95 96 97
63 62 64 63 61 66 68 66 62 62 62 61 62 70 74 72 73 78 79 81 83 89 93 88 88 82 84 82 85 82 82 75 80 85 92 95 97 101 102 100 99 95 90
78 72 64 66 68 67 72 74 72 68 67 67 69 72 80 80 76 73 75 74 76 82 86 87 74 73 73 75 79 77 80 84 89 89 92 93 91 91 97 103 101 92 87
80 79 70 67 73 74 72 76 81 79 75 72 73 77 79 81 79 75 78 77 74 77 80 85 76 70 67 72 77 76 77 91 92 90 91 85 86 91 96 100 102 98 91
79 81 83 78 79 80 78 79 81 88 82 75 74 76 81 84 83 73 69 74 78 76 79 78 81 86 83 79 82 79 76 87 91 91 88 87 87 88 91 95 95 102 104
89 91 90 88 84 81 83 85 84 89 88 77 71 75 80 79 73 71 67 63 69 77 75 86 89 89 88 89 88 79 82 85 83 82 86 87 87 87 89 91 93 102 107
92 92 87 87 88 86 88 87 89 88 89 80 73 75 81 80 75 76 70 63 60 64 80 88 96 97 97 93 92 88 88 86 82 81 80 86 87 88 89 93 95 103 109
95 98 97 95 92 91 93 88 80 81 83 81 76 72 76 77 74 75 75 67 65 71 86 92 101 102 99 91 89 87 87 87 82 81 83 85 86 89 94 96 96 103 107
99 101 98 96 96 94 82 79 80 77 78 79 73 66 62 67 70 65 63 73 81 86 88 91 98 97 91 85 83 84 84 84 82 84 84 89 90 91 96 97 95 99 102
90 94 89 86 77 76 76 77 80 81 75 73 71 68 61 52 64 75 75 77 81 84 83 85 90 87 82 80 80 78 81 81 81 83 86 89 89 92 95 97 98 99 102
80 79 79 80 88 86 75 79 80 74 73 77 73 65 57 58 65 78 79 83 82 82 81 76 75 73 73 75 76 75 77 78 79 81 84 86 87 89 91 94 96 93 93
72 74 73 72 74 74 83 80 72 71 75 70 64 55 43 47 51 64 72 69 71 74 72 70 69 68 68 69 69 72 74 77 80 80 81 82 83 84 85 89 89 91 87
61 64 66 67 70 70 67 63 69 71 65 61 55 51 47 57 63 67 68 67 68 67 66 66 67 66 64 63 63 65 69 73 74 72 74 76 79 80 82 86 84 87 84
49 50 54 54 50 53 57 60 61 58 52 51 50 50 52 56 62 63 62 63 61 60 59 59 60 61 59 60 60 59 58 58 59 60 61 65 70 73 77 78 79 80 79
35 40 42 47 48 48 47 46 43 41 41 42 43 44 47 50 51 52 55 56 55 55 55 55 55 54 53 53 52 51 50 50 51 52 53 56 59 62 67 71 74 75 72
25 29 31 32 32 30 30 30 29 29 32 34 37 39 41 42 43 46 47 47 47 47 47 48 48 47 46 45 44 42 43 44 45 45 46 48 53 57 59 65 67 67 65
Wind_Direction_500mb
315 297 276 245 236 233 228 229 228 228 233 240 241 242 240 238 238 238 239 241 243 241 240 239 240 239 242 243 242 243 243 242 240 249 248 249 245 244 243 244 243 242 241
334 324 302 262 239 233 232 230 229 230 230 239 242 243 242 243 240 240 239 240 242 241 240 240 241 240 239 242 244 243 243 243 241 244 248 247 247 247 244 243 242 242 240
335 337 327 300 243 238 237 233 232 230 235 238 240 242 243 242 241 241 241 240 243 243 241 241 240 242 242 240 243 243 243 243 243 243 246 246 245 242 239 237 237 236 239
330 334 340 327 294 242 233 236 235 233 233 236 239 242 244 244 243 242 240 240 241 245 244 243 244 245 246 244 243 243 244 243 241 240 242 242 242 240 236 237 236 236 244
329 331 332 334 328 284 240 233 238 236 235 238 240 243 244 243 243 241 240 239 241 242 244 243 239 242 246 247 246 246 244 242 241 239 239 238 239 238 233 232 235 238 242
333 332 331 326 330 325 268 235 237 238 237 239 241 242 243 243 244 244 243 241 242 242 243 240 244 240 245 244 245 249 251 247 243 244 242 240 240 240 240 236 234 229 230
330 334 328 326 320 322 311 264 233 239 239 238 241 243 243 244 244 245 244 244 244 242 243 244 243 247 242 245 245 245 250 249 249 250 249 247 243 243 242 235 233 237 241
321 324 325 321 317 311 311 306 270 239 241 244 243 242 244 245 245 245 244 243 245 244 243 243 245 244 246 244 245 245 245 247 245 248 249 252 251 251 251 247 242 244 235
314 319 316 318 314 307 304 306 301 273 241 244 248 246 244 245 245 244 242 242 243 244 244 244 244 243 246 241 246 249 247 246 247 248 251 250 249 249 246 243 231 231 231
308 310 310 306 308 305 300 298 298 291 272 249 245 242 244 248 247 247 245 239 243 241 242 244 245 241 244 240 243 247 247 246 246 247 247 245 245 247 247 243 239 233 232
300 303 302 299 299 300 297 291 290 290 283 268 255 246 246 244 244 246 243 243 244 244 244 244 244 242 245 243 244 247 248 251 251 250 251 249 244 243 243 240 239 234 235
296 298 297 293 293 295 294 292 285 284 282 276 264 256 249 246 243 242 244 239 243 245 246 249 250 249 249 249 245 248 249 249 250 250 248 246 244 243 243 241 238 235 236
292 291 290 289 288 289 293 290 285 280 278 276 271 261 255 250 245 241 243 243 240 245 248 247 251 251 248 249 247 250 248 246 248 249 247 247 249 250 247 243 239 235 233
283 285 286 284 284 286 287 286 284 277 276 273 271 264 259 256 252 243 242 241 239 243 245 249 251 251 247 249 248 243 249 246 247 247 250 252 250 245 244 243 238 232 226
280 281 281 282 281 283 281 283 280 273 272 271 268 266 260 256 254 256 251 249 246 240 240 242 246 246 244 246 245 241 246 245 245 247 247 247 246 244 243 243 238 233 227
277 275 276 279 280 282 281 282 276 269 268 268 263 258 255 251 250 253 255 257 251 243 240 238 240 241 241 243 246 244 240 242 245 244 245 244 244 243 242 241 237 234 229
268 270 272 273 277 275 275 276 274 266 265 270 264 254 248 246 242 243 242 245 247 240 235 240 240 240 241 241 243 244 246 245 248 246 244 243 242 243 241 241 239 234 230
262 267 269 270 267 267 268 268 264 263 265 270 267 255 244 243 242 243 243 238 238 231 232 239 237 239 240 241 244 246 245 246 246 245 242 242 242 242 241 240 240 237 234
263 264 263 262 261 262 262 259 257 258 263 267 267 258 247 238 237 236 235 233 235 236 237 236 237 239 242 243 244 246 248 250 248 246 244 242 242 241 241 242 243 241 237
258 258 258 258 256 253 254 249 251 256 258 257 258 254 248 237 227 226 228 229 231 237 239 239 240 241 243 245 247 247 248 248 247 246 244 242 242 243 242 243 242 238 236
255 254 252 250 249 251 243 244 250 253 254 256 256 257 251 241 235 229 227 226 231 237 242 245 247 249 251 249 249 247 247 247 248 248 247 245 243 243 244 244 245 244 240
249 249 248 243 245 245 246 250 250 246 249 251 255 255 241 233 238 237 233 238 241 243 245 248 249 250 250 249 249 248 247 248 248 248 247 246 245 244 244 244 243 241 238
245 245 245 246 246 245 245 245 242 241 242 244 246 245 235 233 233 235 238 240 240 240 241 243 246 249 249 249 248 249 249 249 250 251 249 247 246 243 242 241 240 238 232
240 239 239 240 237 236 238 238 235 234 236 237 237 237 236 234 235 236 237 237 237 238 241 243 244 247 249 247 247 247 247 246 246 247 248 248 246 244 242 240 239 235 233
238 234 235 234 232 228 227 226 226 227 229 231 232 231 232 231 232 232 233 233 235 237 239 240 243 244 244 242 242 241 240 238 237 239 241 243 243 243 241 238 236 235 237
228 226 223 220 219 220 223 223 225 226 226 226 226 226 226 227 227 228 228 229 232 234 234 236 238 238 235 233 232 232 231 230 231 232 233 235 236 237 237 237 236 237 236
Wind_Speed_850mb
23 27 36 48 56 64 82 88 91 89 96 99 103 101 96 92 93 94 94 101 107 102 102 103 100 93 92 87 84 82 83 82 76 78 71 60 54 50 49 50 52 53 51
25 24 26 34 41 54 71 84 82 88 98 100 101 102 98 92 91 94 94 91 94 100 102 102 102 100 102 97 92 87 86 84 85 84 76 72 67 61 55 53 53 54 54
29 25 21 23 34 45 56 69 83 84 92 96 97 99 97 92 91 90 90 92 92 88 93 99 101 100 105 102 101 95 89 87 82 87 81 77 75 69 63 60 59 59 57
31 30 27 24 25 46 45 60 71 83 89 95 96 95 93 93 91 90 88 86 89 87 84 84 89 97 101 103 102 100 95 92 87 88 86 88 83 76 70 67 63 60 59
38 35 34 32 31 27 49 54 61 69 81 93 95 93 94 92 92 90 86 86 85 85 83 89 80 82 87 89 99 101 98 96 96 95 97 98 95 88 85 77 74 64 67
42 41 39 37 35 31 26 49 53 62 70 77 86 92 93 96 92 89 85 85 84 85 88 89 93 91 80 79 81 81 89 95 101 101 103 107 105 102 95 86 76 76 75
42 44 42 40 37 35 28 30 48 54 59 68 76 77 86 91 92 90 85 85 87 88 89 90 91 90 87 81 84 83 83 86 89 96 102 109 109 104 101 98 86 82 83
45 44 48 45 40 40 38 31 32 42 53 61 67 74 78 84 85 83 80 79 85 88 88 89 90 89 90 78 80 88 89 87 91 91 97 95 98 98 99 95 84 80 78
49 48 48 52 50 44 45 43 37 37 46 53 61 67 74 79 82 83 77 80 86 88 87 86 87 84 82 81 75 87 91 94 89 90 93 88 87 87 82 91 95 88 85
51 53 52 53 55 54 50 49 48 45 47 52 56 63 69 75 79 81 77 80 87 96 93 91 88 85 82 75 81 88 93 93 89 89 93 95 91 89 85 84 91 96 93
57 58 58 56 59 60 60 56 55 55 54 54 62 63 65 72 77 80 79 81 93 91 92 91 93 83 82 82 78 86 90 80 83 87 87 92 95 97 98 91 95 96 97
63 62 64 63 61 66 68 66 62 62 62 61 62 70 74 72 73 78 79 81 83 89 93 88 88 82 84 82 85 82 82 75 80 85 92 95 97 101 102 100 99 95 90
78 72 64 66 68 67 72 74 72 68 67 67 69 72 80 80 76 73 75 74 76 82 86 87 74 73 73 75 79 77 80 84 89 89 92 93 91 91 97 103 101 92 87
80 79 70 67 73 74 72 76 81 79 75 72 73 77 79 81 79 75 78 77 74 77 80 85 76 70 67 72 77 76 77 91 92 90 91 85 86 91 96 100 102 98 91
79 81 83 78 79 80 78 79 81 88 82 75 74 76 81 84 83 73 69 74 78 76 79 78 81 86 83 79 82 79 76 87 91 91 88 87 87 88 91 95 95 102 104
89 91 90 88 84 81 83 85 84 89 88 77 71 75 80 79 73 71 67 63 69 77 75 86 89 89 88 89 88 79 82 85 83 82 86 87 87 87 89 91 93 102 107
92 92 87 87 88 86 88 87 89 88 89 80 73 75 81 80 75 76 70 63 60 64 80 88 96 97 97 93 92 88 88 86 82 81 80 86 87 88 89 93 95 103 109
95 98 97 95 92 91 93 88 80 81 83 81 76 72 76 77 74 75 75 67 65 71 86 92 101 102 99 91 89 87 87 87 82 81 83 85 86 89 94 96 96 103 107
99 101 98 96 96 94 82 79 80 77 78 79 73 66 62 67 70 65 63 73 81 86 88 91 98 97 91 85 83 84 84 84 82 84 84 89 90 91 96 97 95 99 102
90 94 89 86 77 76 76 77 80 81 75 73 71 68 61 52 64 75 75 77 81 84 83 85 90 87 82 80 80 78 81 81 81 83 86 89 89 92 95 97 98 99 102
80 79 79 80 88 86 75 79 80 74 73 77 73 65 57 58 65 78 79 83 82 82 81 76 75 73 73 75 76 75 77 78 79 81 84 86 87 89 91 94 96 93 93
72 74 73 72 74 74 83 80 72 71 75 70 64 55 43 47 51 64 72 69 71 74 72 70 69 68 68 69 69 72 74 77 80 80 81 82 83 84 85 89 89 91 87
61 64 66 67 70 70 67 63 69 71 65 61 55 51 47 57 63 67 68 67 68 67 66 66 67 66 64 63 63 65 69 73 74 72 74 76 79 80 82 86 84 87 84
49 50 54 54 50 53 57 60 61 58 52 51 50 50 52 56 62 63 62 63 61 60 59 59 60 61 59 60 60 59 58 58 59 60 61 65 70 73 77 78 79 80 79
35 40 42 47 48 48 47 46 43 41 41 42 43 44 47 50 51 52 55 56 55 55 55 55 55 54 53 53 52 51 50 50 51 52 53 56 59 62 67 71 74 75 72
25 29 31 32 32 30 30 30 29 29 32 34 37 39 41 42 43 46 47 47 47 47 47 48 48 47 46 45 44 42 43 44 45 45 46 48 53 57 59 65 67 67 65
Wind_Direction_850mb
315 297 276 245 236 233 228 229 228 228 233 240 241 242 240 238 238 238 239 241 243 241 240 239 240 239 242 243 242 243 243 242 240 249 248 249 245 244 243 244 243 242 241
334 324 302 262 239 233 232 230 229 230 230 239 242 243 242 243 240 240 239 240 242 241 240 240 241 240 239 242 244 243 243 243 241 244 248 247 247 247 244 243 242 242 240
335 337 327 300 243 238 237 233 232 230 235 238 240 242 243 242 241 241 241 240 243 243 241 241 240 242 242 240 243 243 243 243 243 243 246 246 245 242 239 237 237 236 239
330 334 340 327 294 242 233 236 235 233 233 236 239 242 244 244 243 242 240 240 241 245 244 243 244 245 246 244 243 243 244 243 241 240 242 242 242 240 236 237 236 236 244
329 331 332 334 328 284 240 233 238 236 235 238 240 243 244 243 243 241 240 239 241 242 244 243 239 242 246 247 246 246 244 242 241 239 239 238 239 238 233 232 235 238 242
333 332 331 326 330 325 268 235 237 238 237 239 241 242 243 243 244 244 243 241 242 242 243 240 244 240 245 244 245 249 251 247 243 244 242 240 240 240 240 236 234 229 230
330 334 328 326 320 322 311 264 233 239 239 238 241 243 243 244 244 245 244 244 244 242 243 244 243 247 242 245 245 245 250 249 249 250 249 247 243 243 242 235 233 237 241
321 324 325 321 317 311 311 306 270 239 241 244 243 242 244 245 245 245 244 243 245 244 243 243 245 244 246 244 245 245 245 247 245 248 249 252 251 251 251 247 242 244 235
314 319 316 318 314 307 304 306 301 273 241 244 248 246 244 245 245 244 242 242 243 244 244 244 244 243 246 241 246 249 247 246 247 248 251 250 249 249 246 243 231 231 231
308 310 310 306 308 305 300 298 298 291 272 249 245 242 244 248 247 247 245 239 243 241 242 244 245 241 244 240 243 247 247 246 246 247 247 245 245 247 247 243 239 233 232
300 303 302 299 299 300 297 291 290 290 283 268 255 246 246 244 244 246 243 243 244 244 244 244 244 242 245 243 244 247 248 251 251 250 251 249 244 243 243 240 239 234 235
296 298 297 293 293 295 294 292 285 284 282 276 264 256 249 246 243 242 244 239 243 245 246 249 250 249 249 249 245 248 249 249 250 250 248 246 244 243 243 241 238 235 236
292 291 290 289 288 289 293 290 285 280 278 276 271 261 255 250 245 241 243 243 240 245 248 247 251 251 248 249 247 250 248 246 248 249 247 247 249 250 247 243 239 235 233
283 285 286 284 284 286 287 286 284 277 276 273 271 264 259 256 252 243 242 241 239 243 245 249 251 251 247 249 248 243 249 246 247 247 250 252 250 245 244 243 238 232 226
280 281 281 282 281 283 281 283 280 273 272 271 268 266 260 256 254 256 251 249 246 240 240 242 246 246 244 246 245 241 246 245 245 247 247 247 246 244 243 243 238 233 227
277 275 276 279 280 282 281 282 276 269 268 268 263 258 255 251 250 253 255 257 251 243 240 238 240 241 241 243 246 244 240 242 245 244 245 244 244 243 242 241 237 234 229
268 270 272 273 277 275 275 276 274 266 265 270 264 254 248 246 242 243 242 245 247 240 235 240 240 240 241 241 243 244 246 245 248 246 244 243 242 243 241 241 239 234 230
262 267 269 270 267 267 268 268 264 263 265 270 267 255 244 243 242 243 243 238 238 231 232 239 237 239 240 241 244 246 245 246 246 245 242 242 242 242 241 240 240 237 234
263 264 263 262 261 262 262 259 257 258 263 267 267 258 247 238 237 236 235 233 235 236 237 236 237 239 242 243 244 246 248 250 248 246 244 242 242 241 241 242 243 241 237
258 258 258 258 256 253 254 249 251 256 258 257 258 254 248 237 227 226 228 229 231 237 239 239 240 241 243 245 247 247 248 248 247 246 244 242 242 243 242 243 242 238 236
255 254 252 250 249 251 243 244 250 253 254 256 256 257 251 241 235 229 227 226 231 237 242 245 247 249 251 249 249 247 247 247 248 248 247 245 243 243 244 244 245 244 240
249 249 248 243 245 245 246 250 250 246 249 251 255 255 241 233 238 237 233 238 241 243 245 248 249 250 250 249 249 248 247 248 248 248 247 246 245 244 244 244 243 241 238
245 245 245 246 246 245 245 245 242 241 242 244 246 245 235 233 233 235 238 240 240 240 241 243 246 249 249 249 248 249 249 249 250 251 249 247 246 243 242 241 240 238 232
240 239 239 240 237 236 238 238 235 234 236 237 237 237 236 234 235 236 237 237 237 238 241 243 244 247 249 247 247 247 247 246 246 247 248 248 246 244 242 240 239 235 233
238 234 235 234 232 228 227 226 226 227 229 231 232 231 232 231 232 232 233 233 235 237 239 240 243 244 244 242 242 241 240 238 237 239 241 243 243 243 241 238 236 235 237
228 226 223 220 219 220 223 223 225 226 226 226 226 226 226 227 227 228 228 229 232 234 234 236 238 238 235 233 232 232 231 230 231 232 233 235 236 237 237 237 236 237 236